Location: Buckeye Ditch
(40.9104°N, 122.9517°W)
Time: 13:23:46
(UTC+00:00)

A-11 Canister half - All Passes

Search period start: 18 May 2025 00:00
Search period end: 28 May 2025 00:00
Orbit: 1515 x 1684 km, 47.2° (Epoch: 17 May)

Date Brightness Start Highest point End Pass type
(mag) Time Alt. Az. Time Alt. Az. Time Alt. Az.
18 May - 06:34:40 10° SSW 06:43:07 37° SE 06:51:21 10° ENE visible
18 May - 08:37:50 10° WSW 08:47:22 88° NNW 08:56:41 10° ENE visible
18 May - 10:43:43 10° W 10:52:56 59° N 11:02:04 10° ENE visible
18 May - 12:49:24 10° WNW 12:58:43 76° NNE 13:08:01 10° ESE daylight
18 May - 14:54:34 10° WNW 15:03:18 49° SW 15:12:09 10° SSE daylight
18 May - 17:03:59 10° WSW 17:06:28 11° WSW 17:08:57 10° SW daylight
19 May - 06:11:52 10° SSW 06:20:10 34° SE 06:28:15 10° ENE visible
19 May - 08:14:48 10° WSW 08:24:21 89° SSE 08:33:41 10° ENE visible
19 May - 10:20:37 10° W 10:29:52 60° N 10:39:00 10° ENE visible
19 May - 12:26:22 10° WNW 12:35:40 74° NNE 12:44:57 10° ESE daylight
19 May - 14:31:31 10° WNW 14:40:20 52° SW 14:49:15 10° SSE daylight
19 May - 16:40:02 10° W 16:43:34 13° WSW 16:47:08 10° SW daylight
20 May - 05:49:05 10° S 05:57:13 32° SE 06:05:08 10° ENE visible
20 May - 07:51:45 10° WSW 08:01:19 86° SSE 08:10:40 10° ENE visible
20 May - 09:57:31 10° W 10:06:47 60° N 10:15:56 10° ENE visible
20 May - 12:03:20 10° WNW 12:12:38 72° NNE 12:21:53 10° ESE visible
20 May - 14:08:29 10° WNW 14:17:22 55° SW 14:26:22 10° SE daylight
20 May - 16:16:23 10° W 16:20:40 14° WSW 16:25:00 10° SSW daylight
21 May - 05:26:19 10° S 05:34:17 30° SE 05:42:01 10° ENE visible
21 May - 07:28:44 10° SW 07:38:19 83° SSE 07:47:39 10° ENE visible
21 May - 09:34:24 10° W 09:43:43 61° N 09:52:53 10° ENE visible
21 May - 11:40:17 10° WNW 11:49:35 70° NNE 11:58:49 10° E visible
21 May - 13:45:26 10° WNW 13:54:24 58° SW 14:03:27 10° SE daylight
21 May - 15:52:52 10° W 15:57:46 16° SW 16:02:43 10° SSW daylight
22 May - 05:03:36 10° S 05:11:21 28° SE 05:18:53 10° ENE visible
22 May - 07:05:42 10° SW 07:15:18 80° SSE 07:24:38 10° ENE visible
22 May - 09:11:18 10° W 09:20:39 62° N 09:29:49 10° ENE visible
22 May - 11:17:14 10° WNW 11:26:32 68° NNE 11:35:45 10° E visible
22 May - 13:22:24 10° WNW 13:31:26 61° SW 13:40:31 10° SE daylight
22 May - 15:29:28 10° W 15:34:52 17° SW 15:40:20 10° SSW daylight
23 May - 04:40:54 10° S 04:48:24 26° SE 04:55:44 10° ENE visible
23 May - 06:42:41 10° SW 06:52:17 76° SSE 07:01:37 10° ENE visible
23 May - 08:48:11 10° W 08:57:35 63° N 09:06:46 10° ENE visible
23 May - 10:54:10 10° WNW 11:03:28 67° NNE 11:12:41 10° E visible
23 May - 12:59:21 10° WNW 13:08:28 64° SW 13:17:35 10° SE daylight
23 May - 15:06:07 10° W 15:11:57 19° SW 15:17:53 10° SSW daylight
24 May - 04:18:14 10° S 04:25:28 24° SE 04:32:32 10° E visible
24 May - 06:19:40 10° SW 06:29:17 73° SE 06:38:36 10° ENE visible
24 May - 08:25:05 10° W 08:34:31 64° NNW 08:43:44 10° ENE visible
24 May - 10:31:07 10° WNW 10:40:25 65° NNE 10:49:36 10° E visible
24 May - 12:36:19 10° WNW 12:45:29 68° SW 12:54:38 10° SE daylight
24 May - 14:42:49 10° W 14:49:04 21° SW 14:55:21 10° S daylight
25 May - 03:55:36 10° S 04:02:32 22° SE 04:09:19 10° E visible
25 May - 05:56:40 10° SW 06:06:17 70° SE 06:15:35 10° ENE visible
25 May - 08:01:57 10° W 08:11:27 65° NNW 08:20:41 10° ENE visible
25 May - 10:08:02 10° WNW 10:17:22 64° NNE 10:26:32 10° E visible
25 May - 12:13:17 10° WNW 12:22:30 71° SW 12:31:41 10° SE visible
25 May - 14:19:34 10° W 14:26:09 22° SW 14:32:47 10° S daylight
26 May - 03:33:00 10° S 03:39:36 21° SE 03:46:04 10° E daylight
26 May - 05:33:42 10° SW 05:43:17 66° SE 05:52:34 10° ENE visible
26 May - 07:38:50 10° W 07:48:23 66° NNW 07:57:39 10° ENE visible
26 May - 09:44:57 10° WNW 09:54:18 63° N 10:03:28 10° E visible
26 May - 11:50:15 10° WNW 11:59:31 74° SSW 12:08:43 10° SE visible
26 May - 13:56:21 10° W 14:03:15 24° SW 14:10:10 10° S daylight
27 May - 03:10:27 10° SSE 03:16:40 19° SE 03:22:46 10° E daylight
27 May - 05:10:43 10° SW 05:20:17 63° SE 05:29:33 10° ENE visible
27 May - 07:15:44 10° W 07:25:19 68° NNW 07:34:37 10° ENE visible
27 May - 09:21:52 10° WNW 09:31:14 62° N 09:40:23 10° E visible
27 May - 11:27:13 10° WNW 11:36:32 78° SSW 11:45:45 10° SE visible
27 May - 13:33:09 10° WNW 13:40:20 26° SW 13:47:31 10° S daylight
